[keps] orb10336.amsat
Ray Hoad
ray.hoad at mypbmail.com
Thu Dec 2 20:36:45 PST 2010
SB KEPS @ AMSAT $ORB10336.O
Orbital Elements 10336.OSCAR
HR AMSAT ORBITAL ELEMENTS FOR OSCAR SATELLITES
FROM WA5QGD FORT WORTH,TX December 2, 2010
Send Subscribe/unsubscribe to KEPS at http://www.amsat.org/mailman/listinfo/keps
BID: ORB10336.O
TO ALL RADIO AMATEURS BT
Satellite: AO-07
Catalog number: 07530
Epoch time: 10335.95527358
Element set: 0943
Inclination: 101.3965 deg
RA of node: 345.2794 deg
Eccentricity: 0.0011746
Arg of perigee: 306.0934 deg
Mean anomaly: 053.9048 deg
Mean motion: 12.53580383 rev/day
Decay rate: -2.7e-07 rev/day^2
Epoch rev: 64947
Checksum: 315
Satellite: FO-29
Catalog number: 24278
Epoch time: 10336.86297910
Element set: 453
Inclination: 098.5174 deg
RA of node: 142.7345 deg
Eccentricity: 0.0351302
Arg of perigee: 046.3681 deg
Mean anomaly: 316.6034 deg
Mean motion: 13.52955092 rev/day
Decay rate: 3.4e-07 rev/day^2
Epoch rev: 70591
Checksum: 307
Satellite: SO-33
Catalog number: 25509
Epoch time: 10336.84104656
Element set: 850
Inclination: 031.4351 deg
RA of node: 274.7601 deg
Eccentricity: 0.0353654
Arg of perigee: 324.5059 deg
Mean anomaly: 033.2531 deg
Mean motion: 14.28342946 rev/day
Decay rate: 2.90e-06 rev/day^2
Epoch rev: 63218
Checksum: 286
Satellite: RS-22
Catalog number: 27939
Epoch time: 10336.73075217
Element set: 776
Inclination: 097.8677 deg
RA of node: 194.8350 deg
Eccentricity: 0.0012493
Arg of perigee: 246.4333 deg
Mean anomaly: 113.5561 deg
Mean motion: 14.63483641 rev/day
Decay rate: 8.6e-07 rev/day^2
Epoch rev: 38360
Checksum: 324
Satellite: VO-52
Catalog number: 28650
Epoch time: 10335.86958206
Element set: 0660
Inclination: 097.6721 deg
RA of node: 022.5625 deg
Eccentricity: 0.0028310
Arg of perigee: 088.1156 deg
Mean anomaly: 272.3259 deg
Mean motion: 14.81862338 rev/day
Decay rate: 7.0e-07 rev/day^2
Epoch rev: 30152
Checksum: 296
Satellite: SO-67
Catalog number: 35870
Epoch time: 10336.73065451
Element set: 342
Inclination: 097.3106 deg
RA of node: 021.2110 deg
Eccentricity: 0.0001919
Arg of perigee: 198.2624 deg
Mean anomaly: 279.7177 deg
Mean motion: 15.21214704 rev/day
Decay rate: 8.07e-06 rev/day^2
Epoch rev: 6707
Checksum: 286
Satellite: HO-68
Catalog number: 36122
Epoch time: 10336.68207581
Element set: 897
Inclination: 100.4472 deg
RA of node: 035.2341 deg
Eccentricity: 0.0007207
Arg of perigee: 315.2432 deg
Mean anomaly: 044.8100 deg
Mean motion: 13.16282916 rev/day
Decay rate: -4.5e-07 rev/day^2
Epoch rev: 4638
Checksum: 272
/EX
SB KEPS @ AMSAT $ORB10336.D
Orbital Elements 10336.MICROS
HR AMSAT ORBITAL ELEMENTS FOR THE MICROSATS
FROM WA5QGD FORT WORTH,TX December 2, 2010
Send Subscribe/unsubscribe to KEPS at http://www.amsat.org/mailman/listinfo/keps
BID: ORB10336.D
TO ALL RADIO AMATEURS BT
Satellite: UO-11
Catalog number: 14781
Epoch time: 10336.72466084
Element set: 407
Inclination: 098.0340 deg
RA of node: 028.7638 deg
Eccentricity: 0.0010040
Arg of perigee: 058.4538 deg
Mean anomaly: 301.7667 deg
Mean motion: 14.79866114 rev/day
Decay rate: 4.27e-06 rev/day^2
Epoch rev: 43673
Checksum: 303
Satellite: AO-16
Catalog number: 20439
Epoch time: 10336.80646145
Element set: 58
Inclination: 098.3578 deg
RA of node: 288.2788 deg
Eccentricity: 0.0011473
Arg of perigee: 030.4377 deg
Mean anomaly: 329.7481 deg
Mean motion: 14.31885814 rev/day
Decay rate: 3.7e-07 rev/day^2
Epoch rev: 8951
Checksum: 329
Satellite: LO-19
Catalog number: 20442
Epoch time: 10335.65936074
Element set: 0967
Inclination: 098.3191 deg
RA of node: 292.3034 deg
Eccentricity: 0.0012247
Arg of perigee: 028.4606 deg
Mean anomaly: 331.7232 deg
Mean motion: 14.32114383 rev/day
Decay rate: 5.8e-07 rev/day^2
Epoch rev: 08952
Checksum: 291
Satellite: AO-27
Catalog number: 22825
Epoch time: 10335.46265446
Element set: 0689
Inclination: 098.5072 deg
RA of node: 279.2504 deg
Eccentricity: 0.0008825
Arg of perigee: 132.3764 deg
Mean anomaly: 227.8155 deg
Mean motion: 14.29318070 rev/day
Decay rate: 7.3e-07 rev/day^2
Epoch rev: 89594
Checksum: 330
Satellite: IO-26
Catalog number: 22826
Epoch time: 10335.56804304
Element set: 0427
Inclination: 098.5017 deg
RA of node: 279.8951 deg
Eccentricity: 0.0009609
Arg of perigee: 127.7183 deg
Mean anomaly: 232.4871 deg
Mean motion: 14.29576409 rev/day
Decay rate: 2.9e-07 rev/day^2
Epoch rev: 89607
Checksum: 333
Satellite: GO-32
Catalog number: 25397
Epoch time: 10335.84896690
Element set: 0347
Inclination: 098.3175 deg
RA of node: 334.0969 deg
Eccentricity: 0.0002117
Arg of perigee: 115.8413 deg
Mean anomaly: 244.2986 deg
Mean motion: 14.23190126 rev/day
Decay rate: -1.16e-06 rev/day^2
Epoch rev: 64389
Checksum: 321
Satellite: NO-44
Catalog number: 26931
Epoch time: 10335.82817395
Element set: 620
Inclination: 067.0504 deg
RA of node: 132.0479 deg
Eccentricity: 0.0006009
Arg of perigee: 276.5908 deg
Mean anomaly: 083.4514 deg
Mean motion: 14.29622131 rev/day
Decay rate: -1.69e-06 rev/day^2
Epoch rev: 47871
Checksum: 302
Satellite: SO-50
Catalog number: 27607
Epoch time: 10335.79665689
Element set: 0332
Inclination: 064.5582 deg
RA of node: 207.3929 deg
Eccentricity: 0.0049439
Arg of perigee: 011.0440 deg
Mean anomaly: 349.1715 deg
Mean motion: 14.71613461 rev/day
Decay rate: 1.5e-07 rev/day^2
Epoch rev: 42704
Checksum: 302
Satellite: CO-55
Catalog number: 27844
Epoch time: 10335.56835084
Element set: 0991
Inclination: 098.7086 deg
RA of node: 342.1432 deg
Eccentricity: 0.0010544
Arg of perigee: 051.0112 deg
Mean anomaly: 309.2012 deg
Mean motion: 14.20750383 rev/day
Decay rate: 7.2e-07 rev/day^2
Epoch rev: 38485
Checksum: 284
Satellite: CO-57
Catalog number: 27848
Epoch time: 10335.55213875
Element set: 0940
Inclination: 098.7141 deg
RA of node: 341.2567 deg
Eccentricity: 0.0010496
Arg of perigee: 054.9158 deg
Mean anomaly: 305.3024 deg
Mean motion: 14.20538396 rev/day
Decay rate: 6.6e-07 rev/day^2
Epoch rev: 38480
Checksum: 316
Satellite: AO-51
Catalog number: 28375
Epoch time: 10336.49877346
Element set: 837
Inclination: 098.0759 deg
RA of node: 320.5466 deg
Eccentricity: 0.0083849
Arg of perigee: 307.4487 deg
Mean anomaly: 051.9090 deg
Mean motion: 14.40713461 rev/day
Decay rate: 6.8e-07 rev/day^2
Epoch rev: 33774
Checksum: 343
Satellite: CP3
Catalog number: 31129
Epoch time: 10336.60041868
Element set: 737
Inclination: 097.9203 deg
RA of node: 006.9946 deg
Eccentricity: 0.0103238
Arg of perigee: 071.6260 deg
Mean anomaly: 289.6129 deg
Mean motion: 14.52343323 rev/day
Decay rate: 1.81e-06 rev/day^2
Epoch rev: 19230
Checksum: 286
Satellite: CO-65
Catalog number: 32785
Epoch time: 10336.72093350
Element set: 852
Inclination: 097.8780 deg
RA of node: 039.1334 deg
Eccentricity: 0.0016179
Arg of perigee: 096.9152 deg
Mean anomaly: 263.3896 deg
Mean motion: 14.81776159 rev/day
Decay rate: -9.7e-07 rev/day^2
Epoch rev: 14044
Checksum: 338
Satellite: KKS-1
Catalog number: 33493
Epoch time: 10336.81214805
Element set: 92
Inclination: 098.1033 deg
RA of node: 097.9532 deg
Eccentricity: 0.0019070
Arg of perigee: 318.7378 deg
Mean anomaly: 041.2394 deg
Mean motion: 14.81223620 rev/day
Decay rate: 6.05e-06 rev/day^2
Epoch rev: 10044
Checksum: 271
Satellite: SOHLA-1
Catalog number: 33496
Epoch time: 10335.79980376
Element set: 269
Inclination: 098.0687 deg
RA of node: 082.8190 deg
Eccentricity: 0.0007218
Arg of perigee: 038.6815 deg
Mean anomaly: 321.4915 deg
Mean motion: 14.69537373 rev/day
Decay rate: -5.0e-08 rev/day^2
Epoch rev: 9949
Checksum: 341
Satellite: TISAT-1
Catalog number: 36799
Epoch time: 10336.71766666
Element set: 366
Inclination: 098.1288 deg
RA of node: 037.8192 deg
Eccentricity: 0.0015211
Arg of perigee: 187.2186 deg
Mean anomaly: 172.8809 deg
Mean motion: 14.80249184 rev/day
Decay rate: 4.03e-06 rev/day^2
Epoch rev: 2124
Checksum: 319
Satellite: STUDSAT
Catalog number: 36801
Epoch time: 10335.75263938
Element set: 0120
Inclination: 098.1294 deg
RA of node: 036.7251 deg
Eccentricity: 0.0014015
Arg of perigee: 179.1127 deg
Mean anomaly: 181.0114 deg
Mean motion: 14.79844552 rev/day
Decay rate: 1.113e-05 rev/day^2
Epoch rev: 02109
Checksum: 263
/EX
SB KEPS @ AMSAT $ORB10336.W
Orbital Elements 10336.WEATHER
HR AMSAT ORBITAL ELEMENTS FOR WEATHER SATELLITES
FROM WA5QGD FORT WORTH,TX December 2, 2010
Send Subscribe/unsubscribe to KEPS at http://www.amsat.org/mailman/listinfo/keps
BID: ORB10336.W
TO ALL RADIO AMATEURS BT
Satellite: NOAA-10
Catalog number: 16969
Epoch time: 10336.52355971
Element set: 297
Inclination: 098.6416 deg
RA of node: 003.7777 deg
Eccentricity: 0.0013104
Arg of perigee: 080.5878 deg
Mean anomaly: 279.6791 deg
Mean motion: 14.27436384 rev/day
Decay rate: 1.03e-06 rev/day^2
Epoch rev: 25959
Checksum: 337
Satellite: NOAA-11
Catalog number: 19531
Epoch time: 10336.32821308
Element set: 307
Inclination: 098.7640 deg
RA of node: 062.4465 deg
Eccentricity: 0.0011818
Arg of perigee: 033.2895 deg
Mean anomaly: 326.9016 deg
Mean motion: 14.14897208 rev/day
Decay rate: -2.22e-06 rev/day^2
Epoch rev: 14491
Checksum: 288
Satellite: NOAA-12
Catalog number: 21263
Epoch time: 10336.43927050
Element set: 796
Inclination: 098.7605 deg
RA of node: 349.5439 deg
Eccentricity: 0.0013116
Arg of perigee: 041.4438 deg
Mean anomaly: 318.7742 deg
Mean motion: 14.25670943 rev/day
Decay rate: 5.6e-07 rev/day^2
Epoch rev: 1637
Checksum: 302
Satellite: MET-3/5
Catalog number: 21655
Epoch time: 10335.76734603
Element set: 977
Inclination: 082.5570 deg
RA of node: 190.2389 deg
Eccentricity: 0.0012524
Arg of perigee: 293.3976 deg
Mean anomaly: 066.5778 deg
Mean motion: 13.17026282 rev/day
Decay rate: 5.1e-07 rev/day^2
Epoch rev: 92773
Checksum: 326
Satellite: MET-2/21
Catalog number: 22782
Epoch time: 10336.49253916
Element set: 953
Inclination: 082.5457 deg
RA of node: 118.9344 deg
Eccentricity: 0.0021057
Arg of perigee: 292.4962 deg
Mean anomaly: 067.3967 deg
Mean motion: 13.83650740 rev/day
Decay rate: 3.7e-07 rev/day^2
Epoch rev: 87135
Checksum: 325
